EA3GYL La Torregassa ES current weather conditions

sailwx.info

Wind from 251 at 2 knots gusting 6

Air temperature 17.8° C
Dewpoint 14.7° C

Last reported at 2018-Apr-27 08:07 UTC.
Time now 2018-Apr-27 08:38 UTC

Location: N 41°17' E 001°31'.
View on Google Maps.

See reports from other nearby stations

  
Tides and Currents Weather Stations Pressure Air Temp Water Temp Dewpoint Dewpoint Depression Visibility Wind Speed Wind Dir Waves Ship Positions
date/time (UTC)wind fromknots sea level pressurealtimeterstation pressurevisibilityair tempwater tempwave heightnotes
2018-Apr-27 08:07 251 2 gusting 6 17.8
2018-Apr-27 07:58 240 3 gusting 7 17.2
2018-Apr-27 07:49 241 3 gusting 7 17.2
2018-Apr-27 07:40 240 3 gusting 7 16.7
2018-Apr-27 07:31 247 3 gusting 7 16.7
2018-Apr-27 07:22 249 2 gusting 6 16.1
2018-Apr-26 23:13 240 5 gusting 9 23.3
2018-Apr-26 23:04 240 5 gusting 9 23.3
2018-Apr-26 20:33 240 5 gusting 9 23.3
2018-Apr-26 20:13 240 5 gusting 9 23.3
2018-Apr-26 20:04 240 5 gusting 9 23.3
2018-Apr-26 19:55 240 5 gusting 9 23.3
2018-Apr-26 19:46 240 5 gusting 9 23.3
2018-Apr-26 19:37 240 5 gusting 9 23.3
2018-Apr-26 19:28 240 5 gusting 9 23.3
2018-Apr-26 19:19 240 5 gusting 9 23.3
2018-Apr-26 19:10 240 5 gusting 9 23.3
2018-Apr-26 19:01 240 5 gusting 9 23.3
2018-Apr-26 18:52 240 5 gusting 9 23.3
2018-Apr-26 18:43 240 5 gusting 9 23.3
2018-Apr-26 18:34 240 5 gusting 9 23.3
2018-Apr-26 18:25 240 5 gusting 9 23.3
2018-Apr-26 18:16 240 5 gusting 9 23.3
2018-Apr-26 18:07 240 5 gusting 9 23.3
2018-Apr-26 17:58 240 5 gusting 9 23.3
2018-Apr-26 17:49 240 5 gusting 9 23.3
2018-Apr-26 17:40 240 5 gusting 9 23.3
2018-Apr-26 17:31 240 5 gusting 9 23.3
2018-Apr-26 17:22 240 5 gusting 9 23.3
2018-Apr-26 17:12 240 5 gusting 9 23.3
2018-Apr-26 17:04 240 5 gusting 9 23.3
2018-Apr-26 16:55 240 5 gusting 9 23.3
2018-Apr-26 16:45 240 5 gusting 9 23.3
2018-Apr-26 16:39 240 5 gusting 9 23.3
2018-Apr-26 16:13 240 5 gusting 9 23.3
2018-Apr-26 16:04 240 5 gusting 9 23.3
2018-Apr-26 15:55 240 5 gusting 9 23.3
2018-Apr-26 15:46 240 5 gusting 9 23.3
2018-Apr-26 15:40 240 5 gusting 9 23.3
2018-Apr-26 10:54 244 5 gusting 13 23.3
2018-Apr-26 10:45 233 6 gusting 13 22.8
2018-Apr-26 10:36 252 5 gusting 11 22.8
2018-Apr-26 10:27 242 5 gusting 10 22.2
2018-Apr-26 10:18 239 6 gusting 12 22.2
2018-Apr-26 10:09 259 5 gusting 12 22.2
2018-Apr-26 10:00 241 5 gusting 10 22.2
2018-Apr-26 09:42 243 5 gusting 12 21.7
2018-Apr-26 09:33 244 5 gusting 11 21.7
2018-Apr-26 09:24 151 1 gusting 6 21.7
2018-Apr-26 09:15 148 0 gusting 3 21.1
2018-Apr-26 09:06 134 0 gusting 4 20.0
2018-Apr-26 08:57 109 1 gusting 5 20.0
2018-Apr-26 08:48 145 0 gusting 3 20.6
2018-Apr-26 08:21 119 0 gusting 3 19.4
2018-Apr-26 08:12 124 0 gusting 3 19.4
2018-Apr-26 08:03 106 0 gusting 3 19.4
2018-Apr-26 07:54 107 0 gusting 1 19.4
2018-Apr-26 07:45 107 0 gusting 2 18.9
2018-Apr-26 07:36 102 0 gusting 2 18.9
2018-Apr-26 07:27 092 0 gusting 2 18.3
2018-Apr-26 07:18 065 18.3
2018-Apr-26 07:09 065 17.8
2018-Apr-25 23:02 288 0 gusting 2 17.8
2018-Apr-25 22:53 133 17.2
2018-Apr-25 22:44 134 0 gusting 1 17.8
2018-Apr-25 22:35 051 18.3
2018-Apr-25 22:26 045 18.3
2018-Apr-25 22:17 045 18.9
2018-Apr-25 22:08 18.9
2018-Apr-25 21:59 045 18.9
2018-Apr-25 21:50 045 18.9
2018-Apr-25 21:41 041 0 gusting 1 18.3
2018-Apr-25 21:32 035 0 gusting 2 18.3
2018-Apr-25 21:23 040 18.3
2018-Apr-25 21:14 18.3
2018-Apr-25 21:05 322 18.9
2018-Apr-25 20:56 272 0 gusting 2 19.4
2018-Apr-25 20:47 282 1 gusting 2 19.4
2018-Apr-25 20:38 288 19.4
2018-Apr-25 20:29 18.9
2018-Apr-25 20:20 044 19.4
2018-Apr-25 20:11 045 19.4
2018-Apr-25 20:02 045 19.4
2018-Apr-25 19:53 19.4
2018-Apr-25 19:44 044 19.4
2018-Apr-25 19:35 044 19.4
2018-Apr-25 19:26 044 0 gusting 2 19.4
2018-Apr-25 19:17 037 1 gusting 3 20.0
2018-Apr-25 19:08 041 0 gusting 2 20.0
2018-Apr-25 18:47 21.1
2018-Apr-25 09:54 123 2 gusting 6 25.0
2018-Apr-25 09:45 115 2 gusting 6 24.4
2018-Apr-25 09:36 102 1 gusting 4 24.4
2018-Apr-25 09:27 110 1 gusting 4 24.4
2018-Apr-25 09:18 121 1 gusting 3 23.9
2018-Apr-25 09:09 100 1 gusting 3 23.3
2018-Apr-25 09:00 108 0 gusting 3 23.3
2018-Apr-25 08:51 098 1 gusting 3 22.2
2018-Apr-25 08:42 108 0 gusting 3 22.8
2018-Apr-25 08:33 123 0 gusting 2 22.2
2018-Apr-25 08:24 118 22.2
2018-Apr-25 08:15 118 21.7
2018-Apr-25 08:06 118 0 gusting 0 19.4